Saltar para o conteúdo principal

Faja / Ilha das Flores

ID 1210907 · 39.4533, -31.2647 mapa

Última leitura · 2026-05-09 19:00 (Europe/Lisbon)

Temperatura
15.9 °C
Humidade
65 %
Pressão
1,024.6 hPa
Precipitação
0.0 mm
Radiação
Velocidade do vento
25.9 km/h
Direcção do vento
Sem vento

Histórico de 24 horas

Hora (Europe/Lisbon) Temperatura Humidade Pressão Chuva Vento Direcção
2026-05-09 19:00 15.9 °C 65 % 1,024.6 0.0 mm 25.9 km/h
2026-05-09 18:00 16.1 °C 60 % 1,024.5
2026-05-09 17:00 16.8 °C 57 % 1,024.7
2026-05-09 16:00 16.0 °C 58 % 1,024.7
2026-05-09 14:00 15.9 °C 49 % 1,024.6
2026-05-09 13:00 15.4 °C 48 % 1,024.5
2026-05-09 12:00 14.7 °C 52 % 1,024.4
2026-05-09 11:00 13.4 °C 63 % 1,024.3
2026-05-09 10:00 13.9 °C 60 % 1,023.9
2026-05-09 09:00 13.4 °C 63 % 1,023.4 0.0 mm 24.1 km/h N
2026-05-09 08:00 13.7 °C 63 % 1,022.8 0.0 mm 22.0 km/h NE
2026-05-09 07:00 13.5 °C 61 % 1,022.8
2026-05-09 06:00 13.3 °C 56 % 1,022.9
2026-05-09 05:00 13.4 °C 57 % 1,023.1
2026-05-09 04:00 13.5 °C 66 % 1,023.2
2026-05-09 03:00 13.9 °C 74 % 1,023.3
2026-05-09 02:00 14.2 °C 69 % 1,023.6
2026-05-09 01:00 14.5 °C 69 % 1,023.7 0.0 mm 21.2 km/h N
2026-05-09 00:00 14.8 °C 70 % 1,023.3
2026-05-08 23:00 15.0 °C 70 % 1,022.6
2026-05-08 22:00 15.2 °C 71 % 1,022.3 0.0 mm 20.9 km/h N
2026-05-08 21:00 16.3 °C 70 % 1,022.0
2026-05-08 20:00 17.3 °C 66 % 1,021.7